Wind_Gust
11 11 12 12 7 9 6 11 13 9 11 9 7 8 3 1 8 7 7 12 2 4 8 10 8 12 12 11 12 12 12 19 16 9 9 6 4 7 6 8 9 12 10 6 5 6 7 9 9 8 8 8 6 3 4 6 5 3 3 2 5 9 10 12 15 17 23 25 20 17 18 17 14 16 13 13 9 9 11 13 11 10 10 12 11 7
10 10 11 10 13 14 13 8 9 8 4 7 8 4 3 2 5 7 6 6 5 6 6 5 18 14 9 10 12 16 23 22 17 8 8 1 3 6 5 9 10 7 5 7 7 8 9 9 7 7 8 6 10 7 6 8 7 6 6 7 5 9 11 13 16 17 17 19 25 24 21 16 16 17 19 17 10 9 12 13 12 11 10 8 7 5
9 15 9 13 7 6 8 7 6 11 8 5 5 3 3 7 8 13 6 5 3 5 9 8 22 10 8 7 15 21 13 12 15 11 11 8 4 9 6 4 4 5 6 8 9 10 9 9 8 7 5 5 4 6 6 5 7 9 9 8 6 8 11 12 10 7 10 12 11 12 15 18 15 11 11 12 14 15 14 10 11 11 10 9 8 8
10 6 15 5 10 10 6 7 9 9 8 10 6 4 7 6 3 9 9 3 6 6 5 12 22 11 11 7 13 13 12 10 11 10 13 14 11 6 13 12 11 9 10 10 11 13 11 10 9 6 4 6 5 3 5 7 10 10 10 7 6 7 8 8 7 5 3 4 10 16 7 7 7 8 10 14 16 12 9 9 10 8 8 8 10 10
11 6 6 13 8 10 9 6 10 9 5 2 6 6 3 3 5 10 8 9 5 4 6 11 17 12 17 18 20 15 8 19 20 18 21 19 14 8 8 6 8 12 10 10 10 11 9 9 10 9 6 4 4 3 4 6 6 7 7 6 6 8 9 5 4 4 7 8 10 12 12 9 8 11 12 13 16 13 8 8 12 14 12 13 13 11
9 6 8 13 6 4 10 6 7 13 5 4 6 10 11 6 5 5 6 6 11 7 6 5 13 9 12 11 13 14 19 22 17 21 22 21 20 15 12 9 10 9 5 4 9 11 10 9 8 4 3 1 1 3 4 4 3 3 4 5 7 8 6 3 3 7 9 14 12 12 13 12 11 10 12 14 17 15 17 18 14 11 13 13 13 12
13 6 8 11 9 6 6 8 6 9 10 7 13 13 11 8 4 3 4 5 5 9 5 4 14 14 10 16 14 10 12 16 18 23 22 21 20 17 15 13 12 13 9 8 9 11 11 8 7 6 4 4 4 5 4 4 5 3 7 7 5 5 6 5 5 7 10 9 10 13 13 14 13 13 10 10 13 17 15 13 13 13 13 14 16 14
9 7 7 7 7 8 7 8 8 13 15 13 6 13 7 7 8 6 4 6 6 5 4 10 11 19 7 9 7 7 8 17 22 23 22 22 20 19 17 17 16 16 13 8 7 6 4 9 10 8 7 7 7 4 5 5 7 6 4 4 3 3 5 5 7 9 10 11 9 8 11 12 12 13 12 13 13 12 12 12 12 12 12 14 17 16
9 11 10 8 4 7 13 10 11 13 19 13 7 13 13 13 10 8 6 6 2 3 8 11 8 13 6 8 5 6 16 18 19 19 19 19 18 17 17 19 18 16 16 16 16 15 14 14 12 9 8 8 7 5 6 8 9 10 10 5 3 3 6 6 7 10 8 9 9 8 9 8 6 5 8 8 10 11 11 11 10 11 11 13 14 14
6 12 16 15 14 13 10 9 16 18 13 9 11 8 8 8 8 7 6 8 4 8 7 3 6 13 8 8 12 5 12 15 15 15 17 17 17 16 17 16 16 16 14 15 16 15 15 13 12 9 9 10 8 7 8 6 6 8 7 6 4 4 4 7 7 8 8 8 10 10 9 9 7 9 9 9 9 9 10 11 11 10 11 11 11 11
3 5 9 13 16 16 14 8 18 18 15 9 11 10 9 12 5 5 11 7 9 4 10 4 5 9 8 7 10 12 10 7 9 8 13 14 16 16 16 16 15 15 14 15 15 15 13 11 9 9 10 7 11 12 11 10 8 6 5 4 5 7 7 3 6 7 7 5 7 9 8 8 9 7 10 9 10 9 8 9 10 11 11 11 12 11
6 3 6 11 8 7 7 8 6 10 6 12 12 10 10 5 10 11 8 10 11 9 9 3 5 5 10 3 5 10 8 8 8 10 12 13 14 14 14 14 15 15 14 15 15 14 12 12 13 11 13 12 12 14 13 11 11 11 11 6 2 4 5 1 2 5 5 4 4 5 7 7 7 8 9 8 9 12 12 11 11 8 8 9 10 10
6 7 6 8 6 14 7 9 4 3 3 10 11 15 17 11 10 9 4 9 9 13 2 4 7 8 9 2 4 6 9 8 9 10 12 13 15 15 16 17 17 17 17 17 15 15 15 15 13 12 10 11 11 9 8 10 9 9 10 12 11 7 6 5 3 3 5 5 5 6 5 5 6 7 7 8 10 12 15 14 12 10 11 9 10 11
12 7 5 8 4 9 14 16 8 7 6 10 15 17 17 14 12 13 7 8 7 8 3 7 5 11 4 6 3 8 9 9 10 11 12 13 15 16 17 16 18 18 17 16 17 17 18 19 17 16 13 10 9 10 11 10 10 9 9 7 9 11 10 8 5 4 5 7 8 6 8 9 10 10 9 10 11 11 13 13 13 13 12 12 13 13
8 10 15 8 12 9 15 14 20 15 13 18 9 20 17 18 23 15 15 16 15 11 5 8 9 13 10 5 3 4 8 9 12 14 14 15 15 14 14 17 19 18 16 17 18 19 19 20 19 19 18 17 14 13 12 12 12 10 10 9 8 9 8 9 9 6 7 8 8 10 10 11 10 11 11 11 11 12 13 13 13 13 11 11 11 13
10 15 12 11 2 11 16 9 10 11 12 5 10 11 14 16 15 11 15 11 10 12 8 10 8 3 5 3 3 4 6 14 13 13 15 16 15 14 18 18 16 16 18 18 18 19 19 18 18 19 19 17 17 17 17 16 14 13 13 10 10 10 11 11 11 10 12 13 13 11 10 12 11 11 13 11 10 11 12 12 12 11 11 11 9 7
6 11 4 10 3 11 10 10 8 15 21 13 11 15 12 7 21 15 5 5 9 14 7 5 6 5 6 3 3 6 12 12 11 13 15 15 15 16 17 16 16 15 15 17 17 17 16 17 18 18 17 18 20 20 20 19 18 16 15 15 16 13 12 12 12 12 13 10 12 11 10 11 14 17 16 16 13 13 11 11 11 10 9 7 7 8
16 11 5 7 10 6 4 5 6 4 13 20 14 13 6 5 11 18 15 6 9 12 9 3 5 10 7 11 3 4 11 12 13 13 15 15 16 17 15 15 15 15 13 14 16 15 15 15 17 17 17 17 18 17 18 17 14 14 14 16 19 18 16 13 9 6 7 13 12 12 11 10 14 18 15 12 13 13 10 9 9 6 7 9 8 10
5 6 6 2 2 4 2 12 12 5 4 20 16 13 19 8 8 7 19 9 10 9 10 5 5 5 5 7 5 9 13 12 11 13 15 16 16 15 14 16 16 16 17 19 17 18 18 19 18 19 17 17 17 16 15 16 16 16 17 18 16 18 18 12 11 14 15 17 13 6 5 6 10 11 8 8 5 8 4 7 8 9 9 8 9 10
7 10 9 5 4 2 5 10 14 5 8 8 13 10 3 15 10 13 16 12 20 9 8 7 7 13 14 10 5 6 11 13 12 13 15 16 15 15 15 15 16 16 15 15 16 16 16 15 16 17 17 17 16 15 15 15 16 17 17 17 19 19 19 19 18 15 19 15 10 9 4 4 7 9 7 7 7 11 16 12 11 10 9 12 11 10
4 5 8 8 5 5 13 8 14 15 12 7 13 6 5 10 6 14 7 7 13 22 14 16 11 14 10 9 3 5 10 11 11 15 15 15 15 15 16 17 15 15 15 16 16 17 17 16 17 17 16 16 14 14 16 16 16 16 16 18 19 19 19 21 21 20 17 11 8 7 7 6 7 9 11 16 15 19 17 13 12 12 12 8 10 9
9 4 6 8 8 4 7 5 4 7 11 19 20 16 16 15 12 10 7 5 9 19 20 17 16 10 7 3 2 8 9 14 13 16 17 16 15 16 17 15 15 15 15 14 14 15 16 16 17 16 17 16 16 17 18 19 16 17 17 17 18 20 18 19 21 21 22 20 12 8 11 9 9 8 12 14 12 10 10 9 12 12 10 12 12 11
12 9 11 5 3 4 2 5 3 5 16 10 11 7 7 7 16 13 13 9 8 5 9 8 14 6 4 7 10 10 12 14 13 15 18 15 14 14 15 14 14 15 15 16 15 15 16 15 14 15 16 16 17 17 18 17 18 18 17 18 18 19 21 19 19 19 20 20 17 12 11 8 8 9 9 9 7 6 9 9 9 10 12 11 11 9
9 10 8 4 4 7 8 5 7 7 8 15 13 7 5 6 6 14 12 15 17 7 7 5 8 7 5 9 12 12 13 14 13 14 18 15 12 13 14 14 14 15 15 16 16 15 16 14 14 15 17 19 19 19 19 18 18 18 18 19 19 19 17 19 19 19 18 17 18 18 12 6 8 7 7 9 9 12 9 10 10 9 9 9 9 13
20 7 14 7 7 10 11 7 12 8 16 12 6 5 3 3 6 4 11 5 16 10 10 16 14 9 12 11 12 12 14 15 14 16 17 13 11 12 13 13 13 13 15 16 17 16 16 17 18 17 17 17 18 18 18 18 18 20 21 20 21 21 19 16 14 15 15 13 15 15 12 12 14 12 11 15 14 11 9 9 10 8 7 8 10 10
16 4 9 12 12 10 10 7 8 4 3 4 6 9 9 5 8 8 7 6 10 7 5 10 9 5 13 12 14 12 13 14 13 18 17 12 12 13 13 13 13 13 14 15 16 17 18 16 17 18 18 18 18 18 17 17 17 17 18 18 17 21 21 22 20 17 13 15 14 14 12 9 12 7 7 10 7 7 9 11 15 14 14 16 15 11
16 7 8 10 16 17 10 7 4 4 8 11 7 12 12 6 5 6 11 11 14 11 8 8 13 18 14 12 13 12 11 12 13 16 15 11 11 12 11 12 12 12 13 14 14 16 16 18 19 18 18 18 18 17 17 17 18 18 17 18 18 19 19 19 20 20 19 21 18 17 12 9 8 6 7 9 9 9 11 13 11 13 17 14 12 15
12 15 9 16 19 9 3 5 7 6 13 9 10 11 12 9 4 6 13 14 12 21 4 6 12 23 17 12 10 11 11 11 12 14 12 11 10 11 11 11 12 13 14 15 17 18 18 17 17 18 18 18 19 19 18 16 16 16 16 18 19 19 18 19 19 18 18 18 19 20 20 16 9 7 7 8 11 15 14 13 14 14 12 11 12 12
14 12 2 14 12 12 9 8 13 20 17 16 16 14 16 11 5 10 5 3 4 16 20 15 17 15 12 11 11 11 11 11 13 15 12 10 9 9 12 13 13 15 14 15 16 16 17 17 17 16 17 17 17 17 17 17 16 15 15 14 16 18 19 19 18 17 18 16 15 16 17 18 15 8 8 9 12 14 13 12 15 15 12 9 8 7
20 10 5 11 17 15 13 10 6 22 14 17 18 15 14 14 15 13 11 2 5 4 8 25 18 15 10 9 12 12 11 12 13 12 12 12 11 12 14 12 13 13 14 14 14 15 14 15 15 15 16 15 16 17 16 17 17 17 17 17 16 17 19 18 19 18 18 18 19 18 17 18 16 13 10 10 12 12 12 14 16 16 14 13 11 11
15 9 10 4 11 12 11 9 11 12 18 24 17 16 14 12 13 13 9 10 19 19 17 20 21 14 8 11 13 12 11 11 12 13 13 12 13 14 13 13 13 14 13 13 12 13 13 13 13 14 15 15 16 17 16 16 16 16 16 16 17 18 18 17 17 17 17 18 19 19 20 18 17 17 12 11 11 13 13 15 15 13 14 12 12 12
14 13 5 6 14 6 3 9 10 14 20 20 17 17 16 11 10 9 8 8 5 18 20 19 16 13 10 11 12 12 13 13 13 12 12 12 14 14 13 13 13 13 13 12 12 12 13 13 13 13 14 14 15 16 16 17 16 16 18 18 18 18 17 18 18 17 18 18 19 19 20 20 18 17 15 10 11 13 15 14 15 15 17 15 13 11
8 25 15 9 18 6 5 2 4 4 6 10 9 8 9 9 9 9 11 12 11 9 26 22 13 13 14 12 14 12 13 12 13 13 12 13 13 12 12 12 11 11 11 11 12 13 13 13 13 13 13 14 16 16 16 15 16 17 16 17 16 15 17 18 18 18 19 19 19 20 20 19 18 17 17 13 11 10 13 13 12 14 14 13 12 10
5 17 15 5 16 13 7 2 4 8 8 9 6 8 7 4 6 13 9 10 11 8 7 11 17 15 12 10 13 13 12 13 13 13 12 11 11 11 10 10 10 10 10 11 11 12 12 13 13 13 13 13 14 14 13 14 15 14 14 14 14 15 16 17 18 19 19 20 20 19 20 20 18 17 16 16 10 7 8 9 11 8 11 11 9 11
10 10 9 6 19 16 4 4 9 9 9 3 4 8 12 14 18 21 15 15 13 13 18 19 15 13 12 13 13 14 16 15 14 14 13 14 11 10 9 10 11 11 11 11 12 12 11 12 12 13 14 14 15 14 14 15 15 13 14 14 14 16 17 16 17 19 20 21 22 22 21 20 19 18 19 17 16 8 6 7 9 14 13 13 10 9
9 14 11 11 10 11 7 6 15 10 3 6 5 5 3 4 5 12 17 13 11 10 12 18 13 15 15 16 13 14 17 16 16 15 13 12 11 9 9 10 10 9 11 10 10 11 11 12 12 12 12 12 13 14 14 15 14 13 14 13 15 16 16 16 18 19 20 21 22 21 22 20 18 18 19 19 18 19 17 14 11 15 16 16 15 13
16 10 11 13 5 15 11 8 10 6 4 4 4 5 4 5 6 5 11 6 6 4 8 14 15 14 15 14 15 12 12 12 14 15 12 11 9 9 9 8 8 9 8 9 9 9 10 10 11 12 11 12 13 16 17 15 14 13 15 18 18 16 16 18 21 21 20 20 21 21 21 20 19 18 18 17 18 19 19 17 14 17 15 22 19 17
4 12 9 15 7 8 14 12 10 6 14 14 4 2 1 2 5 4 8 7 6 9 12 15 14 14 14 14 11 11 9 5 10 11 10 9 9 8 7 6 7 8 9 9 10 10 11 11 11 12 12 13 16 17 15 14 14 13 17 18 18 17 17 19 20 19 21 20 20 19 20 20 19 19 17 18 19 18 19 18 16 20 18 21 22 23
14 15 11 15 11 9 7 15 15 15 13 3 9 3 1 1 3 2 9 6 6 10 10 12 15 13 13 14 10 8 7 6 7 7 6 7 8 7 7 8 8 8 9 10 10 11 11 11 9 10 13 14 17 17 14 13 13 16 18 18 18 17 20 21 20 19 19 19 18 18 19 19 20 19 18 17 17 17 18 18 15 16 17 21 20 19
15 10 10 14 9 6 10 10 9 8 9 4 3 2 2 1 3 3 7 11 10 12 11 11 13 14 11 9 9 5 5 7 10 8 5 8 6 4 6 7 10 11 12 12 12 9 8 9 12 14 14 16 16 14 14 11 14 17 18 18 16 20 20 19 17 16 16 18 19 18 19 19 20 20 19 17 15 18 19 16 14 16 18 18 20 19
8 8 11 11 8 8 10 6 5 6 4 2 3 2 4 4 3 8 11 7 9 12 11 10 12 11 12 10 5 8 9 10 13 11 7 8 8 7 7 6 7 8 11 12 12 10 11 12 12 13 14 14 15 15 14 13 15 17 17 17 19 20 18 15 15 16 16 17 19 20 20 20 19 20 20 17 15 15 17 18 15 13 18 18 18 19
4 6 3 7 7 7 4 11 9 5 4 2 2 4 4 7 9 10 6 6 14 13 11 11 13 10 9 9 12 15 14 13 13 10 10 8 8 5 7 7 10 12 11 10 12 13 12 13 14 16 17 16 16 15 14 14 16 16 18 20 21 16 15 16 17 17 16 19 19 19 20 20 20 18 18 18 15 14 16 13 14 16 17 16 16 19
7 11 5 6 8 7 6 9 4 7 7 3 2 2 4 6 4 8 14 10 11 14 15 11 12 13 17 15 14 16 14 13 12 11 9 8 9 9 8 10 11 11 11 13 14 13 12 13 15 15 14 15 15 15 15 15 17 16 17 21 17 15 15 15 16 16 17 18 20 19 19 19 20 19 18 17 16 15 15 13 14 15 17 17 17 19
2 11 7 6 7 13 10 15 14 4 4 3 5 8 6 4 13 12 14 14 10 12 15 15 11 12 17 21 18 14 13 14 11 11 11 9 7 7 7 8 8 9 9 9 9 10 10 13 13 14 13 15 15 14 14 15 17 18 19 18 15 16 17 17 15 17 19 19 19 19 19 18 19 20 18 18 16 16 16 16 15 15 14 15 16 18
7 5 6 13 4 8 10 7 5 7 7 6 6 10 13 12 12 12 14 13 16 11 10 16 15 13 15 18 16 16 14 9 11 9 10 8 7 6 7 6 7 7 7 6 8 8 8 10 11 12 13 15 15 15 14 13 14 16 17 15 14 16 17 16 17 18 19 19 19 20 17 18 20 20 19 18 18 18 17 16 14 16 14 14 16 16
7 12 9 17 17 16 17 10 9 12 14 14 13 11 15 14 10 12 15 16 10 12 10 17 15 15 14 13 19 12 12 11 12 11 9 7 6 3 4 6 7 6 6 7 9 10 9 10 10 11 13 14 13 14 11 12 11 13 12 11 13 12 12 15 17 19 18 17 18 18 17 18 18 19 19 19 18 17 16 16 16 15 13 13 14 14
3 2 3 15 13 7 11 3 11 13 14 14 18 14 13 12 11 11 14 15 14 13 15 13 15 13 11 11 14 15 12 9 10 7 5 4 5 4 4 4 4 3 4 6 6 6 8 7 9 10 10 12 14 13 12 10 11 10 9 11 11 12 12 14 16 17 17 17 15 15 17 18 18 17 19 18 17 18 17 17 16 16 16 14 12 12
6 3 18 9 9 8 13 9 11 13 13 12 13 16 16 14 14 12 14 15 16 14 13 14 12 13 11 14 12 13 10 6 8 5 5 4 5 4 4 4 4 6 5 3 4 6 6 7 7 8 9 11 12 12 12 11 11 10 11 10 10 10 12 14 14 14 14 14 14 15 15 16 13 15 16 17 18 19 19 16 15 15 14 13 11 9
8 4 11 7 15 17 17 11 13 16 17 15 13 12 12 15 18 16 16 17 15 16 14 11 9 9 11 12 10 9 9 6 6 6 6 5 5 5 4 3 3 2 3 7 6 5 4 4 7 6 7 9 9 10 11 12 11 10 10 9 8 8 11 12 12 13 13 13 14 14 13 14 15 15 15 14 16 17 16 15 14 13 13 13 11 10
10 10 14 20 19 15 13 18 17 22 16 12 12 13 14 14 17 18 16 16 14 15 13 15 11 8 8 7 9 8 10 6 5 6 5 4 3 2 2 4 4 5 5 3 3 4 6 5 5 6 7 8 9 9 9 10 10 10 8 7 8 9 11 10 11 12 13 12 12 11 12 12 13 13 14 14 14 13 15 14 17 14 14 13 13 16
9 16 19 20 25 20 12 17 5 15 17 13 15 12 13 13 17 18 16 14 11 10 11 15 14 10 8 5 4 10 7 8 3 5 6 5 2 1 1 1 3 5 7 6 7 8 7 6 7 7 8 9 9 9 8 9 9 10 11 8 7 9 10 9 10 9 10 11 11 9 8 9 11 10 12 12 12 11 11 12 17 17 18 15 15 15
Wind_Speed
4 5 6 7 4 5 5 7 8 6 7 6 4 5 2 0 4 4 4 6 2 1 4 6 2 8 6 7 8 8 6 12 11 5 3 2 1 1 2 3 5 8 6 1 3 4 5 5 4 4 4 4 4 2 3 4 3 2 2 1 3 6 6 6 7 8 9 8 7 8 9 9 7 7 5 6 4 6 7 8 6 6 5 5 3 4
5 5 6 6 9 10 9 5 6 5 3 4 6 3 1 1 2 4 2 3 1 1 2 4 12 7 4 6 8 9 15 14 9 5 6 1 2 2 3 3 4 2 3 3 4 5 6 5 4 5 4 4 5 2 3 5 4 4 4 4 3 6 6 7 8 4 1 2 3 5 7 6 7 7 6 6 6 6 7 6 7 6 6 5 4 3
4 7 5 9 4 4 5 4 4 7 5 3 3 2 1 2 5 9 4 3 2 3 1 6 14 5 4 4 8 13 8 5 6 7 6 5 2 3 3 3 1 1 2 3 4 5 5 6 5 4 3 3 2 2 2 3 5 6 6 5 4 5 7 6 4 1 3 0 2 3 3 4 4 3 5 6 8 9 7 5 5 5 5 5 5 5
4 2 10 3 7 7 3 3 6 6 5 6 4 2 3 3 1 1 3 2 4 2 3 7 13 7 6 2 8 8 6 4 6 7 9 9 7 3 4 7 6 5 4 4 5 6 4 4 5 3 2 3 3 2 3 3 4 3 4 3 3 4 5 5 3 0 1 1 1 4 3 2 3 2 5 7 8 5 5 5 5 3 2 5 6 6
6 3 3 9 5 7 6 3 6 5 2 1 4 3 1 1 2 4 3 4 2 3 4 7 9 5 9 8 8 8 5 12 12 11 13 12 9 6 6 3 1 4 5 5 4 5 4 5 5 4 0 2 2 2 3 2 0 1 1 2 4 5 5 4 2 3 4 3 5 4 3 3 1 4 6 8 7 6 4 4 7 8 8 8 5 5
4 2 6 9 4 3 6 3 4 8 4 1 4 6 6 3 4 3 4 4 4 1 2 2 5 3 7 5 7 6 8 13 10 13 14 13 11 10 8 6 6 6 3 1 5 7 6 6 2 1 0 0 1 1 2 2 1 2 3 4 3 1 1 0 2 4 5 5 5 7 7 6 6 5 7 9 8 8 9 9 5 7 8 9 7 6
5 3 5 7 6 4 4 4 4 5 6 3 5 8 6 5 3 2 2 1 1 3 1 1 6 2 5 7 8 5 6 9 9 14 13 11 11 10 9 9 8 8 5 3 3 5 4 1 1 0 2 3 3 3 2 2 2 1 1 1 2 1 1 2 4 5 6 5 6 8 8 7 6 7 5 6 7 8 6 5 6 7 7 5 7 7
3 4 4 5 4 5 4 4 3 7 8 3 2 9 5 4 4 4 2 4 2 1 1 5 5 8 2 5 4 5 3 10 14 15 13 12 11 11 10 10 10 9 8 5 4 3 3 6 7 5 5 5 4 2 2 2 3 3 2 1 0 1 2 3 4 6 6 7 6 5 4 2 5 5 5 7 7 6 7 7 7 6 7 6 5 6
6 5 6 5 2 3 6 5 7 7 7 4 2 9 9 8 6 4 2 2 0 0 3 5 5 5 2 3 3 4 10 11 12 12 12 12 11 10 10 11 11 10 10 10 10 10 9 9 7 5 5 5 5 3 3 4 3 3 2 2 1 1 2 2 3 6 6 5 6 5 5 4 3 3 5 5 5 6 6 7 5 6 6 8 8 8
1 8 10 10 7 6 5 5 11 11 5 4 4 4 4 5 5 4 3 3 2 3 2 0 3 3 0 2 4 2 6 8 8 9 9 10 10 10 9 10 10 10 9 10 11 10 10 8 7 5 5 6 5 4 4 4 3 4 3 2 1 1 2 2 1 4 5 5 4 5 5 5 4 5 5 5 5 5 6 6 6 5 7 7 7 7
1 4 6 5 6 8 8 5 11 12 5 6 7 6 5 7 3 2 5 2 4 1 3 2 3 4 1 1 4 4 4 2 5 4 6 8 9 10 9 9 8 9 9 9 9 9 9 7 6 4 5 5 8 7 8 6 5 4 4 3 2 2 4 1 1 1 3 4 3 3 3 2 3 5 6 5 4 3 3 3 5 6 7 7 7 6
2 2 2 3 5 3 4 4 1 3 4 8 3 4 6 2 5 4 4 5 3 2 3 2 3 2 3 1 3 5 4 4 4 5 6 7 8 8 8 8 9 9 8 9 9 8 8 8 8 7 8 7 7 7 7 7 7 7 7 5 1 3 3 1 1 0 0 2 2 2 3 2 1 3 3 4 5 5 3 3 5 4 4 5 5 6
2 2 2 5 3 9 3 5 2 1 1 5 6 8 9 2 2 0 1 1 2 4 1 3 3 4 4 0 1 3 5 5 5 5 6 7 9 9 10 10 10 10 11 10 9 9 9 9 8 8 7 7 7 6 5 6 6 6 6 7 7 5 4 3 2 2 1 1 2 4 3 3 4 4 5 5 6 6 6 7 6 5 6 5 6 6
5 3 3 4 2 3 8 8 2 3 2 6 8 8 7 4 3 4 1 0 2 2 1 4 2 4 1 3 2 4 5 5 6 7 8 8 9 9 9 8 10 10 10 8 8 10 10 11 10 10 8 6 6 7 7 7 6 5 5 5 5 6 6 5 3 2 2 3 2 3 4 5 6 6 6 6 7 7 7 7 7 6 6 6 7 7
3 3 7 4 2 4 7 7 11 8 7 8 4 9 7 7 5 3 3 4 6 4 2 4 4 3 5 2 0 0 5 6 7 8 9 9 7 8 8 10 11 10 9 8 9 10 10 10 10 10 11 10 9 9 8 7 7 6 6 6 6 6 5 5 6 3 4 5 4 4 4 5 6 7 6 6 6 7 8 7 7 7 7 6 7 7
5 5 5 6 0 6 9 4 5 7 6 1 4 6 7 6 7 4 5 4 3 4 3 5 1 1 1 1 2 0 3 8 8 8 8 8 8 9 10 10 9 9 10 11 11 11 12 11 11 11 11 10 9 11 10 10 8 8 8 7 7 7 6 5 6 6 7 6 5 5 4 4 5 6 7 6 6 7 6 6 7 6 6 6 5 5
3 2 1 5 2 7 7 6 2 8 5 4 5 5 5 2 11 6 2 2 5 7 1 0 1 0 1 1 1 1 7 7 7 8 8 8 9 10 10 9 8 9 8 10 10 10 10 11 11 10 10 10 11 10 11 11 10 10 10 10 11 9 8 6 5 7 6 5 5 6 6 7 8 9 9 9 8 7 6 6 5 5 5 4 4 5
7 4 2 4 6 2 2 3 3 1 5 7 3 6 2 3 5 7 4 2 3 4 1 1 1 3 3 1 0 0 7 8 8 8 9 10 10 10 8 8 8 9 8 9 10 10 9 9 11 10 10 10 10 10 9 9 9 8 9 10 13 12 10 7 3 1 5 6 6 5 6 6 9 10 5 4 5 4 3 3 4 3 4 6 5 5
2 0 1 0 0 1 1 7 7 3 2 10 8 6 6 1 2 3 6 1 2 1 1 1 2 1 2 2 1 6 7 8 7 8 9 10 9 9 8 10 10 10 10 11 10 10 10 11 11 11 11 10 10 9 9 9 8 8 9 9 9 11 12 8 6 6 8 7 4 2 3 4 5 6 5 3 2 4 1 5 5 5 5 5 6 6
2 2 2 1 2 0 2 4 5 1 5 6 8 4 1 6 4 4 4 4 8 3 3 3 4 4 5 4 2 4 7 8 8 8 10 10 10 8 8 9 9 9 8 8 9 9 9 9 10 10 10 11 10 10 10 10 9 12 11 11 12 12 12 13 12 10 8 5 3 2 2 3 5 4 1 2 2 7 10 8 6 6 6 7 6 6
0 1 2 2 2 2 3 1 7 8 6 3 5 1 1 3 2 6 3 2 5 8 5 5 2 5 4 4 1 3 7 7 7 9 9 9 9 8 9 8 7 7 7 9 9 9 9 10 10 10 9 9 8 9 10 10 10 10 10 11 12 12 13 13 12 12 10 6 3 2 3 4 5 5 6 10 9 7 5 4 5 6 7 5 6 5
2 0 1 2 4 1 2 2 2 4 6 10 9 7 8 8 5 5 2 2 4 7 6 6 5 4 3 1 0 3 6 8 9 10 10 10 9 9 8 9 8 8 9 8 8 8 8 8 8 8 9 8 9 10 12 11 10 11 11 11 11 12 11 12 12 11 11 12 8 5 7 5 3 3 3 2 2 4 3 3 5 6 5 7 7 6
4 2 4 2 1 2 1 3 1 3 8 6 5 2 3 3 7 5 5 3 4 1 4 4 6 2 1 3 6 6 7 9 9 9 10 9 9 8 8 8 8 9 9 9 9 8 8 8 8 8 10 11 11 10 11 10 11 11 11 12 10 11 13 11 10 9 9 9 10 8 5 4 3 2 1 1 2 4 6 6 6 5 6 6 6 6
5 2 3 1 2 4 3 2 3 4 4 9 7 4 2 2 2 7 4 7 7 3 3 1 2 1 2 5 6 7 8 9 8 6 11 9 7 7 8 8 8 9 9 9 9 8 9 9 9 9 11 11 11 12 12 11 10 11 11 11 10 11 11 12 11 11 10 9 10 11 6 4 6 5 5 3 6 9 7 6 6 6 6 6 5 7
3 2 6 2 2 3 4 2 5 3 7 5 2 2 1 1 4 2 5 2 7 5 6 7 5 4 5 5 6 7 9 9 9 7 10 8 6 6 7 7 7 8 9 10 10 10 10 10 11 10 10 10 11 11 11 11 10 11 11 11 12 11 10 8 8 9 9 8 9 10 8 7 5 0 4 7 4 5 5 6 6 5 4 1 3 6
6 1 2 4 5 4 2 1 2 1 1 0 2 4 5 3 6 4 3 1 4 3 3 3 2 1 6 7 9 8 8 9 7 7 11 7 7 7 7 7 7 7 8 9 9 10 10 9 9 10 11 10 10 10 10 10 10 10 10 11 10 11 12 11 8 8 7 6 8 8 8 6 4 2 4 5 5 5 6 6 6 5 6 9 9 5
5 3 4 4 8 8 4 2 2 1 4 4 3 7 6 4 3 4 5 4 6 5 4 4 7 10 8 8 8 8 6 7 6 8 9 7 6 6 7 7 7 7 8 9 8 9 9 11 12 11 11 10 11 10 9 10 11 11 10 11 11 11 11 11 10 10 8 9 9 9 8 6 5 3 5 4 4 5 6 6 6 7 8 6 7 9
5 7 5 10 12 6 1 2 4 3 6 3 5 5 7 5 3 3 6 5 6 11 1 1 8 14 10 8 6 7 7 6 6 8 8 6 6 6 6 6 8 8 8 8 10 11 11 10 10 10 10 11 11 11 10 9 9 10 10 11 11 11 10 10 10 10 10 10 10 9 10 10 6 4 4 4 6 7 6 6 7 8 7 7 7 7
6 5 0 7 8 8 6 4 7 11 11 9 10 9 11 8 3 4 1 1 2 7 9 8 11 8 7 6 7 7 7 7 8 9 8 7 5 6 7 8 8 9 9 9 9 9 10 10 9 9 10 9 10 11 11 10 10 9 8 8 9 10 11 11 10 10 10 9 9 9 10 10 9 5 4 5 7 7 7 7 8 9 8 6 5 4
8 5 2 7 11 10 9 6 4 14 7 9 11 10 9 10 10 8 6 1 3 2 5 15 12 10 5 5 7 7 7 7 8 7 7 8 7 7 9 8 8 8 8 9 9 9 8 9 9 9 9 9 9 10 10 10 10 10 10 10 9 10 11 10 10 10 10 11 10 10 10 9 9 8 5 5 6 7 7 8 9 9 8 8 7 7
6 1 6 1 5 6 7 6 7 8 10 14 11 11 10 7 9 9 5 6 11 12 11 14 15 8 4 7 8 7 7 6 7 8 8 7 7 8 8 8 8 8 8 8 8 8 8 8 8 8 8 9 9 10 9 9 9 9 10 10 10 10 10 9 9 10 10 11 11 11 11 10 9 9 7 6 6 7 8 9 8 7 8 7 7 7
7 5 1 1 6 3 1 6 6 9 13 13 11 12 11 7 6 5 4 4 1 10 12 13 9 5 5 7 8 7 8 8 8 8 7 7 8 9 8 8 8 8 8 7 7 8 8 8 8 8 9 9 9 9 9 9 9 9 10 10 11 10 9 10 10 9 11 11 11 11 12 11 11 9 9 6 6 8 9 8 7 8 8 7 7 6
1 9 5 4 9 1 3 1 3 2 3 6 6 5 5 5 5 4 6 8 7 4 13 11 6 6 8 7 8 7 8 8 8 8 7 8 8 8 8 7 6 7 7 7 7 8 8 8 9 9 9 9 9 9 9 8 9 10 9 10 9 9 10 10 10 10 10 11 11 12 11 11 11 10 10 8 7 6 8 8 7 7 7 7 6 6
3 8 6 1 6 5 4 2 1 4 2 2 2 4 4 2 3 8 4 5 7 5 2 5 9 9 7 6 8 8 8 7 7 7 7 6 6 7 7 6 7 6 6 7 7 7 7 8 8 8 8 8 9 9 8 8 8 8 8 8 8 9 9 10 11 11 11 11 12 12 11 12 11 10 9 10 6 5 5 6 6 4 3 4 5 6
6 5 4 1 6 6 1 2 4 2 2 2 2 4 7 9 11 14 10 10 8 8 13 12 9 8 7 8 8 9 10 9 9 9 8 9 7 6 6 7 7 7 7 6 7 7 7 8 8 9 9 9 9 9 9 9 9 8 8 8 9 9 9 9 10 11 12 13 12 12 11 12 11 9 10 9 9 5 1 2 5 5 5 5 5 5
5 7 3 5 3 4 2 2 3 1 1 3 2 2 1 2 2 8 11 9 7 5 7 11 8 10 10 10 8 8 10 10 10 9 8 8 7 5 6 6 5 5 6 5 6 7 7 8 8 7 7 7 8 9 9 9 9 8 7 7 9 9 9 9 10 11 12 13 13 12 11 11 11 11 10 11 10 11 10 9 7 6 5 7 7 7
9 5 4 5 2 5 3 4 4 3 1 1 1 1 0 1 2 2 5 3 3 1 4 8 10 9 10 9 8 7 7 7 8 8 6 6 5 5 5 5 4 4 4 5 5 6 6 6 6 7 6 7 7 9 9 9 9 7 8 10 10 9 10 10 12 12 12 12 12 13 12 11 11 11 11 10 11 11 11 10 8 7 5 10 9 10
1 6 4 7 1 3 6 5 3 1 4 6 2 1 0 0 3 2 4 3 3 5 7 8 8 10 9 9 7 7 5 0 6 4 5 6 5 5 4 4 3 4 5 5 6 6 7 7 7 7 7 8 9 9 8 8 8 8 9 10 10 10 10 11 12 11 12 12 12 11 11 12 11 11 10 10 11 10 9 9 8 8 7 9 10 11
9 9 6 8 4 3 3 5 3 4 2 0 5 2 0 1 2 1 4 1 3 6 6 8 10 8 8 9 6 5 2 2 3 2 3 4 5 5 4 5 5 5 5 5 6 7 7 7 6 7 8 8 10 10 9 9 8 9 10 10 10 10 11 12 10 10 11 10 10 11 11 11 12 12 10 10 10 10 10 9 8 6 7 8 10 10
9 5 5 6 4 1 4 4 2 0 1 1 1 0 1 1 1 1 2 3 5 8 7 7 9 9 7 6 6 1 2 4 4 3 2 5 4 2 3 4 5 6 7 7 7 5 5 6 8 9 9 10 10 9 9 8 9 10 10 10 10 12 12 11 9 9 9 10 10 10 11 11 12 12 11 10 9 10 10 8 8 7 10 8 9 10
4 4 5 5 4 5 6 2 3 2 1 0 1 1 2 1 0 3 4 3 5 8 7 6 8 7 8 6 2 3 4 4 7 6 4 4 5 4 3 3 3 3 6 7 8 7 7 7 7 8 9 9 9 9 9 8 9 10 10 10 11 12 10 9 9 9 9 9 11 12 12 11 11 12 12 10 8 7 9 9 8 6 9 8 8 10
2 3 1 3 4 3 1 5 2 1 1 1 0 2 2 3 3 5 2 3 9 8 6 7 9 7 6 6 7 8 7 7 8 6 6 5 5 4 4 5 6 7 6 6 8 8 7 8 9 11 11 10 10 9 9 8 10 10 10 12 13 11 8 9 10 10 10 11 11 11 11 12 11 11 10 10 9 8 9 7 8 7 7 8 9 11
2 3 1 2 1 2 2 4 1 1 1 1 1 1 1 1 1 3 7 6 6 9 9 7 7 8 10 9 9 10 9 8 7 7 6 5 6 6 6 6 7 7 7 8 9 8 7 7 8 9 9 9 9 9 9 10 11 10 10 12 11 9 8 9 9 10 10 11 12 11 11 11 12 11 9 9 9 9 9 7 8 7 9 10 9 10
1 4 1 1 2 5 2 3 3 0 1 1 2 3 1 1 5 6 7 7 6 6 9 8 7 7 10 12 10 9 8 9 7 7 7 6 5 5 5 5 5 6 6 6 6 7 7 7 7 7 8 9 9 8 8 9 10 11 12 12 9 9 10 10 9 10 11 11 11 11 11 10 10 10 10 11 9 9 9 9 8 8 8 7 8 9
3 2 2 5 1 1 2 2 2 4 2 3 2 5 7 8 7 7 8 7 9 5 5 9 9 8 10 12 10 10 8 6 7 5 7 5 5 4 4 4 5 5 5 5 5 6 5 6 7 7 8 8 9 8 8 7 9 11 12 9 8 9 9 9 10 11 11 11 11 11 9 10 10 9 10 10 10 10 10 10 9 9 8 8 8 9
3 6 4 7 7 8 8 5 5 7 8 8 8 6 9 8 6 7 10 9 6 7 5 9 9 9 9 9 11 7 7 7 8 7 6 5 4 2 3 4 5 4 4 5 6 7 6 6 7 8 9 9 9 8 7 7 7 9 7 7 8 8 7 8 10 11 10 10 10 10 10 10 10 10 11 11 10 9 9 9 9 8 7 7 7 7
1 0 1 5 6 1 4 2 6 7 9 9 11 9 8 7 6 6 8 9 8 8 9 8 9 8 7 7 9 10 8 6 6 5 3 3 3 3 3 3 3 3 3 4 4 4 5 5 6 7 7 8 9 8 7 6 7 6 5 6 6 7 7 9 9 10 10 10 9 9 10 11 9 9 10 11 9 9 9 8 9 9 8 7 6 6
2 1 7 5 5 3 6 5 7 8 8 7 6 9 9 9 9 7 8 9 9 8 8 8 8 8 7 8 8 8 6 4 5 4 3 3 3 3 3 3 3 4 4 2 3 4 4 5 4 6 6 7 7 7 7 7 7 6 6 5 5 5 6 8 8 8 8 9 8 8 8 9 10 10 8 9 10 10 9 8 7 8 8 7 6 5
3 2 4 2 6 8 10 7 8 9 10 9 8 7 7 8 10 11 11 11 10 10 8 7 6 6 7 8 7 6 6 4 4 4 4 3 3 3 3 3 3 2 2 4 4 3 3 4 5 4 5 5 6 6 7 8 7 6 5 5 4 5 7 7 8 8 8 8 8 8 7 7 8 8 8 8 8 9 9 8 7 7 7 7 5 5
4 4 6 10 9 7 5 8 10 8 6 6 8 7 9 9 11 12 10 10 9 10 8 10 7 5 5 5 6 5 6 4 4 4 4 3 2 2 2 3 3 3 3 2 1 3 4 3 3 4 5 5 6 5 6 6 7 6 5 5 5 6 7 7 7 7 7 7 7 7 7 7 7 7 7 8 7 7 8 11 14 10 7 7 10 13
4 7 8 7 9 8 7 10 3 8 10 6 8 8 8 8 11 12 10 9 7 7 7 10 9 6 5 3 3 7 5 5 3 3 4 3 2 0 0 0 3 4 4 4 5 5 5 5 4 5 5 6 5 5 5 6 5 6 7 5 5 6 6 6 6 6 6 6 6 6 5 5 6 6 6 6 6 6 6 6 9 14 14 12 12 13
Wind_Direction
131 155 184 187 188 203 191 171 181 168 144 122 91 104 125 155 280 283 260 251 141 133 225 213 61 53 27 3 345 343 21 36 17 5 64 50 75 59 32 129 161 193 202 58 96 121 139 156 151 153 159 161 162 170 170 182 191 172 185 209 149 126 132 144 161 187 193 191 181 177 181 187 186 187 155 139 142 153 182 188 184 195 210 219 187 167
96 155 220 192 194 187 189 176 108 97 79 130 107 86 70 166 276 236 254 326 9 149 308 72 83 59 28 12 7 12 36 21 9 9 22 37 97 85 127 169 182 169 35 130 141 149 151 166 175 164 163 159 177 174 170 186 185 184 199 215 153 138 150 171 184 179 301 324 262 233 206 182 179 169 161 154 160 165 196 183 183 189 205 199 182 160
138 183 217 218 185 92 76 109 122 136 106 64 144 134 49 283 250 285 281 318 341 134 345 81 77 37 343 356 28 38 37 25 28 36 30 19 45 125 119 133 123 129 190 186 196 161 162 181 180 171 160 129 129 154 202 181 172 182 195 207 175 155 165 184 176 158 218 150 328 285 304 230 165 134 133 143 171 182 162 166 185 181 196 194 184 174
151 285 231 164 138 116 51 83 100 74 74 111 88 84 213 233 38 312 290 22 353 88 136 116 89 56 351 351 51 43 28 22 29 43 42 32 12 321 185 169 178 204 200 190 189 168 164 193 199 200 181 124 121 160 200 204 207 195 205 206 190 175 176 174 138 203 237 142 110 354 18 360 359 110 126 143 169 156 134 169 165 168 200 214 191 177
181 203 178 127 145 141 128 133 117 124 143 356 131 133 136 223 240 162 256 339 323 62 105 108 78 35 5 12 10 13 2 34 18 26 32 29 17 1 357 337 293 209 189 175 167 155 156 193 208 217 289 85 120 160 196 216 55 33 302 227 216 200 196 169 141 137 135 110 109 114 78 131 134 119 147 148 171 159 148 158 187 173 181 209 208 186
222 232 121 128 135 143 118 120 173 128 158 45 234 176 188 189 192 263 312 13 23 3 340 119 61 27 307 350 20 341 14 36 18 33 30 26 26 19 14 356 355 16 19 117 150 162 175 195 169 191 254 166 162 184 202 182 156 151 176 198 227 312 351 73 130 131 132 143 150 162 170 183 183 185 171 170 156 156 178 199 181 159 177 191 186 193
187 151 130 153 151 159 137 159 217 144 160 135 255 188 203 184 191 262 257 78 8 134 242 25 122 159 308 10 354 348 18 38 35 36 27 27 28 24 24 24 20 23 28 65 106 168 162 151 101 360 330 357 344 355 356 6 2 325 252 154 53 337 214 189 164 147 139 145 167 193 192 189 190 198 188 160 162 173 180 178 179 175 170 189 181 185
118 165 120 97 112 141 128 178 235 145 123 198 243 169 153 122 164 211 132 152 205 232 273 49 94 135 140 336 329 324 20 35 31 29 26 25 26 30 30 29 32 32 29 61 97 119 39 42 37 29 18 8 346 356 21 23 6 337 337 77 113 250 203 210 166 150 158 160 175 193 197 192 228 218 173 165 173 163 164 177 170 164 167 168 207 199
144 174 159 149 129 133 184 201 186 164 136 215 198 152 161 172 187 146 109 99 289 53 264 341 14 74 106 268 318 342 34 17 28 21 19 18 24 31 35 36 39 41 44 41 43 49 45 47 44 38 26 7 359 357 26 35 12 341 352 40 202 272 263 247 171 147 155 158 171 189 209 208 183 156 144 157 155 160 161 165 164 167 166 169 178 198
282 164 190 162 154 199 216 198 161 165 153 272 132 78 85 80 61 108 107 103 340 64 272 308 29 124 284 297 358 359 54 24 10 20 13 16 30 33 39 42 40 43 44 50 53 52 54 56 56 48 36 20 7 8 18 32 15 350 352 10 305 300 265 256 225 157 158 163 164 176 197 201 165 133 137 148 157 167 163 171 177 173 172 174 174 180
165 314 158 114 177 202 190 183 165 174 190 144 117 80 40 43 38 20 67 88 70 27 260 270 315 134 56 339 33 21 52 334 4 17 14 23 31 38 44 43 44 45 47 50 51 52 54 49 45 43 56 32 20 12 15 19 17 358 347 356 15 310 296 274 276 239 166 151 150 145 161 190 154 139 140 144 162 117 129 184 196 186 181 178 183 178
1 59 119 232 168 84 110 97 254 182 114 128 118 121 81 15 14 24 346 34 97 274 267 336 9 55 135 299 49 48 69 53 50 41 37 26 32 36 36 42 46 46 42 44 46 44 46 43 34 27 28 31 30 33 359 10 11 6 352 342 7 320 292 281 269 308 325 106 114 111 126 136 128 130 139 147 122 130 179 251 257 225 177 186 185 183
295 235 239 314 231 143 111 88 25 108 189 84 104 107 131 219 43 253 7 154 154 176 358 316 346 37 38 114 54 42 59 70 67 58 48 37 41 40 38 37 39 37 39 37 37 41 39 40 35 30 11 13 25 23 7 12 5 3 360 357 340 312 304 290 230 207 233 142 140 134 140 167 163 160 171 162 156 176 185 196 220 229 215 190 185 193
265 285 316 268 338 195 131 135 165 103 184 125 135 149 129 136 108 166 279 286 320 307 258 5 336 89 144 81 44 63 82 73 77 71 57 50 48 44 42 40 39 39 37 32 31 32 31 30 32 29 25 25 19 16 15 7 3 347 345 344 339 317 315 309 289 255 233 235 205 164 172 179 180 186 182 180 175 184 190 200 202 203 226 202 202 192
109 200 266 130 233 180 159 159 179 167 156 187 136 149 170 136 151 167 181 165 195 189 294 317 67 230 146 204 285 62 104 89 73 66 61 59 52 48 45 44 38 37 34 31 33 32 26 22 24 25 24 23 23 21 17 10 3 354 350 340 324 312 294 291 292 287 235 224 217 191 189 196 196 192 194 200 188 187 194 199 207 197 208 213 209 201
181 198 252 200 258 151 173 201 127 98 90 103 151 73 114 208 148 122 202 147 164 113 24 356 137 232 131 204 223 103 140 90 82 77 69 60 54 45 45 40 31 29 28 24 24 22 21 20 20 22 19 17 19 21 18 15 10 2 350 335 318 305 300 297 312 335 343 355 351 334 302 265 228 206 200 202 194 200 195 198 208 206 198 216 209 201
41 284 270 316 111 173 195 136 196 144 152 201 103 166 210 162 104 96 64 54 96 65 346 237 248 58 326 305 104 314 109 94 94 82 73 62 52 50 45 38 32 29 29 27 22 20 16 15 18 20 15 11 13 20 17 6 0 358 352 348 340 324 310 314 349 26 317 278 247 224 226 235 229 229 204 200 195 196 194 197 209 206 199 204 201 188
134 234 298 131 216 285 176 123 120 55 146 86 134 220 161 104 110 128 164 347 53 135 213 41 186 149 130 227 141 192 143 117 97 86 70 59 52 47 38 34 29 24 27 32 26 21 17 17 18 17 15 14 14 13 8 5 356 356 355 350 347 345 333 327 341 121 257 270 262 261 238 238 244 250 255 238 214 208 164 198 221 202 173 199 196 180
126 356 302 314 296 289 7 96 49 24 338 158 181 157 114 190 186 342 99 118 106 61 155 327 94 53 178 245 179 210 156 129 104 91 75 61 52 45 39 35 29 23 25 20 17 13 9 9 9 10 7 4 9 4 0 356 357 358 1 356 351 344 338 321 290 263 241 235 205 228 261 259 277 289 313 336 359 59 258 222 204 201 205 192 191 186
51 143 292 301 140 338 36 88 161 207 23 38 108 84 360 101 145 125 193 159 106 169 120 198 143 224 208 225 182 210 139 134 129 104 92 83 67 52 44 34 29 23 21 18 14 13 11 8 8 8 4 3 0 359 355 352 356 1 359 356 352 345 346 343 335 318 308 313 276 247 256 237 233 250 40 24 146 186 211 212 195 192 194 202 195 192
91 114 142 285 294 62 150 351 175 154 121 45 46 18 34 33 214 103 32 78 151 155 165 142 190 256 251 223 225 159 142 135 125 101 86 78 72 65 57 42 30 23 20 22 21 13 11 9 7 5 2 358 358 2 359 358 359 356 354 354 353 347 344 343 338 338 330 316 283 243 242 204 209 211 188 201 196 214 233 241 212 197 197 183 201 180
74 21 159 296 34 17 225 256 213 196 165 154 156 183 158 120 109 124 211 38 80 109 166 146 217 264 273 138 245 102 112 113 103 103 90 78 70 60 55 44 37 28 25 22 16 15 10 6 359 360 358 355 2 2 359 360 357 358 357 351 350 345 346 342 338 339 334 331 311 267 242 243 219 216 254 297 254 218 236 245 228 217 189 193 198 178
150 146 94 65 134 107 177 13 343 164 104 97 109 134 154 112 107 99 134 214 55 32 114 146 115 262 54 70 69 67 73 88 99 100 93 79 69 63 54 47 38 34 26 19 17 13 9 5 359 357 358 358 359 357 357 358 359 355 352 349 351 348 340 340 335 336 336 328 323 291 271 255 235 227 268 279 298 249 231 232 225 211 204 205 192 187
81 76 65 331 319 301 312 275 39 38 71 66 28 41 58 129 166 163 171 176 127 162 85 9 68 180 119 92 90 87 80 76 65 72 91 77 71 65 57 49 40 30 21 16 15 13 8 3 1 1 2 360 357 358 357 355 355 351 348 344 343 344 341 339 340 337 334 327 321 315 293 245 217 183 123 123 215 225 227 226 222 196 202 205 191 192
115 293 116 89 16 338 347 353 358 347 54 71 68 337 332 115 73 136 108 71 102 199 172 130 182 210 145 109 97 91 88 78 73 57 70 76 63 61 57 50 42 33 26 15 13 9 7 6 5 359 356 357 355 356 353 354 354 352 344 341 341 335 337 336 331 324 318 314 311 308 303 268 265 155 175 206 218 231 224 221 216 184 151 105 257 228
89 162 89 118 145 138 130 134 176 110 84 6 68 351 12 78 118 116 104 68 112 209 123 127 151 125 114 121 111 103 98 88 78 83 73 60 54 48 49 47 39 33 28 17 13 10 8 6 0 0 359 358 360 355 352 350 350 347 346 343 342 334 335 338 331 324 311 312 314 306 292 277 267 231 214 214 196 196 216 221 224 219 204 189 198 213
116 81 60 156 153 176 198 204 267 103 46 57 319 26 356 10 357 101 96 105 174 180 160 212 161 139 147 139 130 122 103 100 88 69 69 57 50 56 56 53 46 37 26 19 14 10 9 8 4 360 359 358 357 354 350 349 347 346 343 342 344 343 340 336 332 327 334 334 334 330 315 287 282 232 232 225 209 218 215 216 219 219 213 197 198 190
79 74 20 69 56 72 64 82 42 87 112 84 59 18 22 22 341 80 134 209 154 108 298 254 168 137 152 128 125 109 99 88 79 71 71 57 47 48 51 50 47 41 31 26 21 14 10 4 1 1 358 355 351 346 346 347 345 343 343 340 341 344 344 340 338 336 335 336 337 332 332 320 293 248 226 232 234 226 225 205 207 217 218 201 201 194
112 101 137 81 56 51 33 56 89 79 73 80 68 49 35 16 42 97 169 244 123 149 192 164 144 119 123 109 105 89 91 92 81 75 67 62 48 51 51 43 37 35 27 25 21 12 6 2 352 358 357 351 348 346 344 343 343 344 344 346 346 347 348 340 341 341 342 337 332 326 325 321 312 280 236 220 232 233 223 210 203 207 200 186 175 153
98 46 69 103 88 46 26 33 47 96 94 64 49 46 39 46 54 67 80 54 107 101 131 125 112 88 86 102 98 93 90 88 82 77 72 61 50 49 50 41 37 35 27 24 18 7 1 353 353 354 349 346 345 344 345 345 346 347 348 350 351 352 346 343 347 345 347 345 335 328 317 318 323 305 258 228 226 232 224 216 208 196 183 183 172 165
103 206 187 347 77 33 27 49 59 77 91 76 44 43 39 32 46 34 66 62 68 57 79 103 105 103 73 93 92 84 81 83 76 70 67 62 54 49 44 38 36 33 24 19 10 2 356 349 347 344 348 350 348 349 348 347 343 345 351 352 354 354 347 349 344 351 349 348 342 331 331 328 327 322 292 247 231 230 227 222 211 195 188 179 165 157
66 149 82 71 90 55 14 76 83 85 83 77 46 24 23 9 29 7 27 336 288 140 123 106 110 138 134 104 89 77 73 66 68 66 62 55 51 50 40 33 33 30 23 11 4 355 346 345 345 347 350 349 346 346 351 350 348 352 354 351 355 350 347 358 1 357 358 353 345 342 336 334 329 326 312 265 233 226 226 222 210 199 190 172 153 151
89 135 141 135 87 128 215 332 338 343 44 34 10 340 4 70 98 83 29 22 19 133 134 157 165 110 128 125 103 82 81 77 66 54 55 54 55 53 46 36 30 28 20 6 358 352 348 349 347 342 348 353 351 349 349 351 353 355 349 351 349 347 356 357 360 358 1 360 356 347 340 333 335 331 325 295 248 224 222 216 209 197 181 176 165 145
50 118 114 123 102 163 210 295 335 71 134 201 324 309 240 194 136 77 40 21 15 38 67 77 112 122 119 119 113 118 97 80 76 66 54 53 56 51 48 40 29 27 16 4 353 353 346 351 345 346 348 347 345 348 343 355 356 344 346 347 345 358 360 1 4 5 1 1 2 356 347 347 343 337 336 327 286 228 219 211 199 157 142 136 126 132
112 83 97 89 105 153 161 20 66 174 230 311 344 63 74 97 94 90 69 52 54 86 103 96 99 100 106 103 108 106 103 90 74 67 55 48 50 52 50 41 32 23 17 357 355 350 351 348 347 350 349 351 350 346 349 353 351 341 352 356 1 3 2 3 9 11 5 2 359 359 355 349 349 344 353 352 357 346 29 73 71 78 74 84 89 100
113 102 136 52 87 82 68 25 145 232 301 94 125 84 156 96 88 86 68 50 44 55 100 109 108 108 108 108 108 111 105 99 82 63 55 53 47 51 54 46 27 17 7 352 349 348 350 350 354 351 342 342 354 354 357 351 341 347 352 3 15 5 2 1 15 14 8 5 1 1 357 352 353 355 5 12 15 28 23 19 30 53 71 83 69 58
123 105 92 86 6 129 133 87 105 147 161 93 291 247 242 129 64 89 114 42 57 69 92 117 120 117 116 117 121 125 129 113 81 61 53 56 47 45 52 45 32 21 10 357 353 346 349 352 359 355 354 1 6 5 2 350 345 345 359 16 12 10 5 8 14 11 9 7 1 2 359 0 4 6 10 19 28 31 32 27 18 31 42 75 66 62
32 124 206 104 298 113 130 107 104 202 222 202 202 337 71 45 137 197 108 90 77 96 134 125 124 126 126 132 141 155 168 72 52 40 34 47 33 31 26 29 22 24 23 8 2 4 2 1 0 6 9 7 12 9 358 357 351 356 11 15 11 10 9 16 12 5 8 6 360 0 2 4 9 14 15 26 33 30 37 44 32 25 41 69 75 66
41 69 96 104 146 85 72 124 175 172 245 102 171 236 342 291 170 156 67 120 156 147 145 140 132 139 142 150 150 162 215 114 97 88 61 45 29 21 23 21 15 15 22 21 17 5 355 352 357 4 9 13 15 1 360 1 1 12 16 15 13 14 16 12 4 2 4 5 4 5 6 6 13 17 19 24 35 43 41 37 47 39 47 63 74 70
44 6 30 61 75 65 135 92 178 197 211 187 151 256 298 323 79 55 96 240 154 152 144 145 142 145 144 139 147 112 39 128 159 134 102 75 59 18 37 30 18 11 20 20 22 11 357 1 10 16 15 14 11 3 3 1 15 19 17 14 16 22 17 3 355 353 4 10 13 13 12 11 15 18 20 22 29 48 51 44 42 40 66 49 66 74
13 11 42 137 127 84 81 60 30 352 338 290 111 287 306 217 324 124 203 193 152 139 144 139 137 136 137 141 140 90 22 62 101 115 101 88 79 47 37 48 44 33 33 28 21 13 21 16 20 20 18 12 7 8 5 5 19 22 17 14 20 22 8 357 358 3 8 15 21 20 16 14 15 18 21 19 18 29 62 59 42 20 68 64 57 73
33 87 18 68 63 106 143 103 181 213 250 133 206 248 252 119 126 223 169 95 111 101 103 122 124 129 127 99 104 106 110 102 104 100 95 84 86 72 60 51 49 42 36 39 34 29 22 22 22 21 18 13 10 11 8 9 23 21 18 17 17 7 1 7 12 12 12 20 24 23 21 18 16 17 21 21 20 28 40 37 63 49 50 66 66 61
201 98 101 116 159 65 44 79 43 222 233 81 160 56 356 164 227 112 113 72 96 111 105 92 108 118 112 104 107 114 112 106 104 103 96 83 72 62 53 51 48 44 33 25 23 17 24 30 24 24 21 11 12 12 11 14 23 21 18 19 1 355 6 15 20 20 20 23 24 26 23 21 23 23 16 20 24 30 41 41 41 42 53 55 57 68
354 83 125 251 194 140 122 150 202 293 76 187 209 171 169 63 121 118 111 103 78 99 109 107 97 115 119 121 125 118 113 112 100 96 87 75 73 63 57 53 47 41 32 24 23 10 13 23 19 21 21 19 14 11 13 19 23 21 21 8 345 1 13 18 23 27 30 26 24 22 24 19 22 28 25 19 19 30 38 36 37 44 45 55 61 56
320 154 204 146 272 133 184 179 253 232 171 100 135 103 102 99 106 113 104 111 118 91 108 111 121 123 126 126 122 121 112 102 104 101 99 99 90 74 61 39 34 30 27 23 12 8 20 20 13 10 13 12 11 8 13 17 22 21 16 353 352 5 13 19 26 32 29 29 27 24 17 27 28 22 28 24 23 28 24 31 31 45 35 47 55 64
91 104 97 86 94 100 62 65 107 98 99 87 68 78 97 96 81 103 111 105 90 112 124 124 125 122 118 118 116 104 108 118 109 106 105 100 96 54 34 28 21 14 20 22 12 5 11 12 16 15 9 1 1 360 6 14 26 23 354 347 4 3 6 21 32 33 31 30 31 26 21 24 27 27 29 30 29 34 31 30 24 31 29 35 46 51
237 3 50 99 167 84 67 21 92 102 100 98 97 81 76 76 87 93 95 98 103 103 101 100 111 112 111 110 113 118 118 121 112 108 104 102 75 61 58 47 25 25 27 17 352 1 10 13 11 7 5 4 351 352 352 6 14 15 3 6 359 8 18 29 29 33 33 32 30 32 31 32 26 27 29 29 30 34 33 32 33 31 25 24 29 42
357 140 80 86 91 92 129 121 100 89 83 82 90 106 98 92 85 77 91 97 101 100 101 107 104 100 108 107 112 116 121 117 113 114 106 103 105 93 78 59 42 34 11 11 10 23 28 22 16 5 6 1 346 347 355 4 6 0 4 2 3 6 25 34 34 31 24 28 33 31 31 35 28 31 39 36 36 33 28 27 30 41 35 21 6 13
158 95 116 187 107 94 100 91 99 83 75 76 81 76 92 106 103 99 101 102 104 101 98 84 87 115 112 118 114 116 111 113 121 125 111 100 85 74 50 32 26 19 10 18 355 23 38 21 14 2 2 349 340 348 357 1 2 356 0 352 358 17 32 29 28 31 28 23 26 30 29 34 35 35 35 39 44 50 43 31 23 34 47 31 23 29
66 76 127 114 112 151 161 157 147 128 132 106 100 106 108 106 108 106 105 105 108 109 106 100 79 68 90 105 116 110 110 107 101 105 94 86 74 39 26 27 19 22 8 344 355 26 23 22 17 1 355 342 342 346 355 354 352 340 341 352 359 11 33 23 26 26 22 25 29 15 24 33 33 34 38 38 38 42 51 51 52 46 43 30 25 42
131 172 166 155 157 170 141 142 92 96 99 113 125 116 113 115 113 113 114 115 107 102 110 111 109 91 86 72 96 114 118 119 121 97 86 70 34 335 258 104 27 20 15 6 28 11 13 5 12 11 1 339 332 333 342 342 340 343 334 345 1 19 23 26 21 18 15 19 24 23 13 30 41 37 46 39 38 39 47 44 40 46 47 47 44 42